GW6093 Weather Reports


time (UTC)temp
C
wind
direction
speed
KPH
gust
KPH
rain 1hr
cm
rain 24hr
cm
rain mn
cm
humidity
%
barometer
mb
20260510150104 26 0 0.0 0.0 0.00 1.27 0.00 87 1017.1
20260510144557 25 0 0.0 0.0 0.00 1.27 0.00 90 1017.1
20260510143058 25 0 0.0 0.0 0.00 1.27 0.00 92 1017.1
20260510141556 24 0 0.0 0.0 0.00 1.27 0.00 94 1017.0
20260510140058 23 0 0.0 0.0 0.00 1.27 0.00 96 1016.7
20260510134556 22 0 0.0 0.0 0.00 1.27 0.00 97 1016.8
20260510133100 22 0 0.0 0.0 0.00 1.27 0.00 97 1016.8
20260510131558 22 0 0.0 0.0 0.00 1.27 0.00 97 1016.5
20260510130057 21 0 0.0 0.0 0.00 1.27 0.00 97 1016.5
20260510124603 21 0 0.0 0.0 0.00 1.27 0.00 97 1016.4
20260510123101 20 0 0.0 0.0 0.00 1.27 0.00 97 1016.2
20260510121558 20 0 0.0 0.0 0.00 1.27 0.00 97 1015.9
20260510120057 20 0 0.0 0.0 0.00 1.27 0.00 97 1015.8
20260510114606 20 0 0.0 0.0 0.00 1.27 0.00 96 1015.5
20260510113056 20 0 0.0 0.0 0.00 1.27 0.00 96 1015.4
20260510111559 20 0 0.0 0.0 0.00 1.27 0.00 96 1015.1
20260510110058 20 0 0.0 0.0 0.00 1.27 0.00 96 1014.9
20260510104619 20 0 0.0 0.0 0.00 1.27 0.00 96 1014.6
20260510103101 20 0 0.0 0.0 0.00 1.27 0.00 96 1014.5
20260510101558 20 0 0.0 0.0 0.00 1.27 0.00 96 1014.3
20260510100058 20 0 0.0 0.0 0.00 1.27 0.00 96 1014.2
20260510094600 20 0 0.0 0.0 0.00 1.27 0.00 95 1014.1
20260510093101 20 0 0.0 0.0 0.00 1.27 0.00 95 1014.0
20260510091556 20 0 0.0 0.0 0.00 1.27 0.00 95 1013.8
20260510090109 20 0 0.0 0.0 0.00 1.27 0.00 95 1013.6
20260510084600 20 0 0.0 0.0 0.00 1.27 0.00 95 1013.5
20260510083105 20 0 0.0 0.0 0.00 1.27 0.00 95 1013.4
20260510081601 20 0 0.0 0.0 0.00 1.27 0.00 95 1013.5
20260510074625 20 0 0.0 0.0 0.00 1.27 0.00 96 1013.2
20260510073058 20 0 0.0 0.0 0.00 1.27 0.00 96 1013.3
20260510071602 21 0 0.0 0.0 0.00 1.27 0.00 96 1013.4
20260510070058 21 0 0.0 0.0 0.00 1.27 0.00 96 1013.4
20260510064611 21 0 0.0 0.0 0.00 1.27 0.00 96 1013.4
20260510063102 21 0 0.0 0.0 0.00 1.27 0.00 96 1013.4
20260510061558 21 0 0.0 0.0 0.00 1.27 0.00 96 1013.5
20260510060100 20 0 0.0 0.0 0.00 1.27 0.00 96 1013.7
20260510054556 20 0 0.0 0.0 0.00 1.27 0.00 96 1013.7
20260510053058 20 0 0.0 0.0 0.00 1.27 0.00 96 1013.9
20260510051603 20 0 0.0 0.0 0.00 1.27 0.00 96 1014.1
20260510050056 20 0 0.0 0.0 0.00 1.27 0.00 96 1014.2
20260510044557 20 0 0.0 0.0 0.00 1.27 0.00 96 1014.3
20260510043103 20 0 0.0 0.0 0.00 1.27 0.00 96 1014.7
20260510041610 20 0 0.0 0.0 0.00 1.27 0.00 96 1015.0
20260510040058 20 0 0.0 0.0 0.00 1.27 0.00 96 1015.1
20260510034557 20 0 0.0 0.0 0.00 1.27 1.27 96 1015.2
20260510033056 20 0 0.0 0.0 0.00 1.27 1.27 96 1015.0
20260510031601 20 0 0.0 0.0 0.00 1.27 1.27 96 1014.9
20260510030059 20 0 0.0 0.0 0.00 1.27 1.27 95 1014.9
20260510024601 20 0 0.0 0.0 0.00 1.27 1.27 95 1014.8
20260510023056 20 0 0.0 0.0 0.00 1.27 1.27 95 1014.7
20260510021558 20 0 0.0 0.0 0.00 1.27 1.27 95 1014.6
20260510020056 20 0 0.0 0.0 0.00 1.27 1.27 95 1014.5
20260510014556 20 0 0.0 0.0 0.00 1.27 1.27 95 1014.1
20260510013108 20 0 0.0 0.0 0.00 1.27 1.27 95 1014.0
20260510011557 20 0 0.0 0.0 0.00 1.27 1.27 95 1013.8
20260510010110 20 0 0.0 0.0 0.00 1.27 1.27 94 1013.7
20260510004600 20 0 0.0 0.0 0.03 1.27 1.27 94 1013.5
20260510003059 20 0 0.0 0.0 0.03 1.27 1.27 94 1013.3
20260510001556 20 0 0.0 0.0 0.03 1.27 1.27 94 1013.7
20260510000119 20 0 0.0 0.0 0.05 1.27 1.27 94 1013.7
20260509234609 20 0 0.0 0.0 0.10 1.30 1.24 94 1013.5
20260509233055 20 0 0.0 0.0 0.25 1.30 1.24 94 1013.5
20260509231558 21 0 0.0 0.0 0.36 1.30 1.24 93 1014.1
20260509224555 21 0 0.0 0.0 0.25 1.19 1.14 93 1014.3
20260509223057 21 0 0.0 0.0 0.08 1.02 0.97 93 1014.5
20260509221611 21 0 0.0 0.0 0.00 0.94 0.89 92 1014.1
20260509220105 21 0 0.0 0.0 0.00 0.94 0.89 92 1014.1
20260509214600 21 0 0.0 0.0 0.00 0.94 0.89 93 1013.8
20260509213102 21 0 0.0 0.0 0.03 0.94 0.89 92 1013.7
20260509211603 21 0 0.0 0.0 0.03 0.94 0.89 92 1013.6
20260509210105 21 0 0.0 0.0 0.03 0.94 0.89 91 1013.4
20260509204603 21 0 0.0 0.0 0.03 1.78 0.89 91 1013.4
20260509203104 22 0 0.0 0.0 0.00 1.75 0.86 90 1013.5
20260509201559 22 0 0.0 0.0 0.00 1.75 0.86 89 1013.4
20260509200107 23 0 0.0 0.0 0.00 1.75 0.86 88 1013.4
20260509194601 23 0 0.0 0.0 0.00 1.75 0.86 92 1013.4
20260509193127 23 0 0.0 0.0 0.00 1.75 0.86 93 1013.3
20260509191615 23 0 0.0 0.0 0.00 1.75 0.86 93 1013.2
20260509190118 23 0 0.0 0.0 0.00 1.75 0.86 92 1013.7
20260509184600 23 0 0.0 0.0 0.28 1.75 0.86 92 1013.5
20260509183059 24 0 0.0 0.0 0.28 1.75 0.86 92 1013.6
20260509181602 24 0 0.0 0.0 0.71 1.75 0.86 91 1013.7
20260509180100 24 0 0.0 0.0 0.86 1.75 0.86 89 1013.9
20260509174603 25 0 0.0 0.0 0.58 1.47 0.58 87 1013.7
20260509173109 26 0 0.0 0.0 0.58 1.47 0.58 83 1013.8
20260509171621 27 0 0.0 0.0 0.15 1.04 0.15 80 1014.0
20260509170055 27 0 0.0 0.0 0.00 0.89 0.00 75 1014.0
20260509164557 27 0 0.0 0.0 0.00 0.89 0.00 75 1013.9
20260509163104 27 0 0.0 0.0 0.00 0.89 0.00 75 1014.2
20260509161558 27 0 0.0 0.0 0.00 0.89 0.00 75 1014.1
20260509160055 26 0 0.0 0.0 0.00 0.89 0.00 78 1014.1
20260509154558 26 0 0.0 0.0 0.00 0.89 0.00 80 1014.0
20260509153101 26 0 0.0 0.0 0.00 0.89 0.00 79 1013.5
20260509151607 25 0 0.0 0.0 0.00 0.89 0.00 81 1013.9